Location: Roland
(31.1349°N, 85.4372°W)
Time: 23:02:29
(UTC+00:00)

Tiros 1 - Pass Details

Date: 24 April 2021
Orbit: 630 x 664 km, 48.4° (Epoch: 06 May)

Event Time Altitude Azimuth Distance (km) Brightness Sun altitude
Rises 14:36:12 0° 285° (WNW) 2,941 10.1 44.2°
Reaches altitude 10° 14:39:44 10° 313° (NW) 2,025 9.4 44.9°
Maximum altitude 14:41:59 13° 342° (NNW) 1,810 9.4 45.4°
Drops below altitude 10° 14:44:14 10° 11° (N) 2,018 9.8 45.9°
Sets 14:47:46 0° 39° (NE) 2,921 10.7 46.6°
